Volver al catálogo

COSMOS 1275 DEB

ActivoPO
NORAD 17641·DEBRIS·🇷🇺 Russia

Lanzado Jun 4, 1981 desde Plesetsk Cosmodrome

Loading…

Próximos Pases (próximas 24 horas)

TLE

ActualizadoSource: Space-Track

Época: Sep 14, 2026, 14:11 UTC

1 17641U 81053LL  26257.59115950  .00002231  00000-0  95892-3 0  9997
2 17641  82.7502 194.3292 0050201 117.2335   2.7292 14.23642446124606

Sigue COSMOS 1275 DEB en tiempo real con AllMySat

Download on the App Store